Regional Weather Roundup
Issued by NWS Albany, NY

Home | Current Version | Previous Version | Text Only | Print | Product List | Glossary On
Versions: 1 2 3 4 5 6 7 8 9 10 11 12 13 14 15 16 17 18 19 20 21 22 23 24 25 26 27 28
000
ASUS41 KALY 281210
RWRALY

NEW YORK STATE HOURLY WEATHER ROUNDUP
NATIONAL WEATHER SERVICE ALBANY NY
800 AM EDT FRI APR 28 2017

NOTE: "FAIR" INDICATES FEW OR NO CLOUDS BELOW 12,000 FEET WITH NO
SIGNIFICANT WEATHER AND/OR NO OBSTRUCTIONS TO VISIBILITY.

NYZ032-033-038>043-046>054-057>066-NYZ062>081-082-084-281300-
EAST


CITY           SKY/WX    TMP DP  RH WIND       PRES   REMARKS
ALBANY         CLOUDY    61  58  90 S5        29.96R
GLENS FALLS    CLOUDY    62  57  83 SW7       29.93R
POUGHKEEPSIE   CLOUDY    61  58  90 SE5       29.93S FOG
NEWBURGH       CLOUDY    61  61 100 CALM      29.95R FOG
MONTGOMERY     CLOUDY    62  59  90 CALM      29.94R
WHITE PLAINS   FOG       59  58  96 CALM      29.95R VSB 3/4
ISLIP          CLOUDY    57  57 100 S6        29.97R FOG
NEW YORK CITY  FOG       58  57  97 E5        29.96R VSB 1
CENTRAL PARK   CLOUDY    61  59  93 W3        29.99R FOG
$$

NYZ005>009-017-018-044>046-055-056-281300-
CENTRAL


CITY           SKY/WX    TMP DP  RH WIND       PRES   REMARKS
FULTON         SUNNY     56  45  66 W10       29.98R
SYRACUSE       MOSUNNY   57  45  64 W12       29.97R
ROME           SUNNY     57  49  74 W8        29.99R
ELMIRA         SUNNY     59  48  67 SW8       29.98R
BINGHAMTON     SUNNY     56  50  80 N8        29.99R
MONTICELLO     CLOUDY    61  59  94 NW3       29.98R
$$

NYZ026>034-041>043-087-281300-
NORTH


CITY           SKY/WX    TMP DP  RH WIND       PRES   REMARKS
WATERTOWN      CLOUDY    51  46  83 SW9       29.98R
FORT DRUM      NOT AVBL
OGDENSBURG     PTSUNNY   56  51  84 SW9       29.94R
MASSENA        CLOUDY    57  52  83 SW15      29.93R
SARANAC LAKE   MOSUNNY   56  53  90 SW13G22   29.92R
PLATTSBURGH    CLOUDY    63  58  83 CALM      29.88R
$$

NYZ001>004-010>016-019>021-085-281300-
WEST


CITY           SKY/WX    TMP DP  RH WIND       PRES   REMARKS
NIAGARA FALLS  MOSUNNY   50  42  74 SW12      29.99R
BUFFALO        PTSUNNY   50  41  71 SW9       30.00R
DUNKIRK        CLOUDY    51  41  68 SW10G18   30.02R
JAMESTOWN      CLOUDY    46  39  76 SW7       30.02R
WELLSVILLE     MOSUNNY   51  42  71 W8        30.03R
ROCHESTER      PTSUNNY   53  43  68 SW13      30.01R
PENN YAN       SUNNY     56  45  66 W7        30.00R
$$

             KEY
       WCI = WIND CHILL INDEX
       VSB = VISIBILITY
       HX  = HEAT INDEX
$$




USA.gov is the U.S. government's official web portal to all federal, state and local government web resources and services.